User: anonymous   Login
Location: The D'Auria's Ocala Star Observatory
(29.0276°N, 82.1742°W)
Time: 21:03:50
(UTC-04:00)
Language:

Abrixas rocket - Orbit

View from above orbital plane
View from above orbital plane
View from above satellite
View from above satellite

Ground track
Ground track

The orbit data is extracted from the following two-line orbital elements,

1 25723U 99022C   15211.43059383  .00006284  00000-0  15518-3 0  9999
2 25723 048.4188 203.5301 0014593 343.2837 174.3377 15.41625297899910
Epoch (UTC): 30 July 2015 10:20:03
Eccentricity: 0.0014593
inclination: 48.4188°
perigee height: 431 km
apogee height: 451 km
right ascension of ascending node: 203.5301°
argument of perigee: 343.2837°
revolutions per day: 15.41625297
mean anomaly at epoch: 174.3377°
orbit number at epoch: 89991

The dashed part of the orbit path shows where the satellite is in the earth's shadow,  

DLR